Wind_Speed
23 25 24 24 23 20 19 19 15 9 8 10 10 10 10 11 16 20 19 16 15 20 20 18 21 23 30 36 34 32 29 23 17 15 17 17 15 15 15 16 15 13 12 10 8 7 8 10 8 5 4 4 6 5 4 5 5 6 7 7 8 11 13 13 13 13 12 12 11 12 13 14 14 14 13 13 13 12 12 12 11 10 10 11 12 13
21 25 30 28 25 21 19 18 15 11 10 11 13 14 14 12 14 18 19 15 14 19 19 18 22 24 28 32 33 33 29 23 19 18 17 16 14 14 15 16 17 15 14 14 12 10 9 11 9 7 5 5 6 6 5 5 6 6 8 8 7 9 12 13 14 14 14 13 12 12 12 13 14 14 13 13 13 12 12 12 11 11 11 12 13 13
20 25 32 30 26 23 20 19 17 15 13 13 15 17 18 14 12 16 18 15 15 20 21 20 23 25 26 30 33 33 29 23 22 22 18 15 15 15 15 16 19 19 18 17 15 12 10 11 10 8 6 6 6 7 6 6 6 7 7 8 7 8 10 13 14 15 15 15 14 13 13 13 14 14 14 14 13 12 12 12 11 11 11 13 14 14
22 24 26 27 28 26 23 22 21 17 14 14 14 18 20 16 13 15 19 18 17 20 22 20 22 24 25 29 33 33 30 25 25 26 22 18 15 14 13 14 18 22 21 19 17 14 12 12 12 10 8 9 8 8 7 6 6 7 8 8 8 8 9 11 12 14 15 16 15 15 15 15 15 14 14 13 13 12 12 11 11 11 12 13 14 13
23 20 19 21 24 28 28 25 24 20 16 13 13 17 19 16 13 13 16 19 18 19 20 19 20 23 27 29 32 34 32 28 27 27 27 24 20 17 15 14 17 21 22 20 18 15 14 13 12 11 10 10 9 9 8 7 7 8 8 9 9 9 9 10 11 12 13 16 16 15 14 15 15 15 14 13 13 12 12 11 12 12 12 12 12 12
24 17 16 17 19 25 30 28 26 22 18 16 15 17 17 16 15 14 15 18 19 19 20 20 16 18 28 31 31 35 33 30 29 29 29 28 26 25 22 18 18 20 20 19 17 15 14 12 11 11 13 12 10 10 9 8 9 9 9 9 10 10 10 10 11 11 12 13 14 13 12 12 12 13 14 13 13 13 12 12 13 13 13 12 11 10
24 18 16 17 16 20 26 29 27 23 20 19 17 16 18 20 21 20 17 19 21 18 17 23 18 12 24 33 33 35 34 32 32 31 31 30 29 29 26 21 20 21 19 17 16 15 13 12 11 12 14 14 11 11 11 10 10 10 10 10 10 10 11 11 11 12 11 12 13 13 12 11 11 12 14 14 15 15 14 14 14 14 14 12 11 10
23 19 16 16 16 17 23 30 29 23 21 19 15 14 18 22 25 25 20 20 21 15 13 25 24 12 19 30 33 35 35 34 34 33 33 32 31 31 28 23 22 23 20 18 16 15 13 11 11 12 13 14 13 12 11 10 10 10 10 10 11 11 11 11 12 12 12 12 13 13 13 12 12 13 15 16 16 16 16 15 14 14 14 13 13 13
19 18 15 14 15 17 26 33 28 23 22 19 14 15 19 22 25 24 21 21 20 13 11 23 25 11 12 24 31 35 37 36 36 36 36 34 32 32 30 25 23 24 22 18 15 13 12 11 12 12 12 14 14 13 12 11 10 11 11 11 11 11 11 11 11 12 13 13 14 14 13 12 11 13 15 16 16 17 17 16 15 14 14 15 15 15
18 17 14 14 16 17 27 34 28 21 21 21 18 19 19 17 21 22 21 19 13 8 10 21 26 12 6 19 31 37 40 41 38 37 37 36 33 33 31 26 25 27 24 20 17 13 11 11 12 13 12 14 15 14 13 12 12 12 11 11 11 11 10 11 11 11 12 13 13 13 13 12 10 11 13 14 15 17 18 17 16 15 14 14 14 13
18 17 16 17 17 15 20 27 25 19 20 22 20 21 17 14 18 20 18 15 7 4 7 15 26 17 4 12 29 38 42 42 40 39 38 37 35 34 32 28 28 29 27 23 20 15 12 12 13 14 14 14 15 15 15 14 13 13 12 11 11 11 11 10 11 11 11 11 12 12 13 13 12 11 12 12 13 15 16 16 16 15 14 13 12 12
18 17 18 18 16 14 14 18 20 19 23 23 19 19 16 12 12 10 9 9 5 3 2 7 21 20 10 11 19 30 37 38 39 42 42 41 39 36 33 30 29 30 29 25 22 18 16 15 15 16 15 15 16 17 16 16 15 14 13 13 12 12 11 11 11 11 11 11 11 12 13 14 14 13 13 12 13 14 14 15 15 14 13 12 12 11
17 19 17 16 15 14 13 14 17 19 24 25 21 20 14 8 4 4 2 5 4 4 4 5 13 17 18 16 11 17 29 35 38 40 42 43 42 39 36 33 31 31 30 27 24 21 19 18 16 17 17 16 17 18 17 16 15 14 14 13 13 12 11 11 11 11 11 11 11 12 13 14 14 14 14 14 14 15 15 15 15 14 13 13 12 11
10 14 15 16 16 15 13 15 18 20 23 25 25 24 16 7 3 2 2 2 3 7 8 6 10 12 17 16 11 13 19 26 33 37 40 42 42 41 39 35 33 32 31 28 25 23 22 19 17 16 17 17 18 18 17 16 16 15 14 13 14 13 12 12 11 11 12 12 12 12 12 13 13 14 14 15 15 15 15 15 15 14 14 14 14 13
6 8 11 15 14 14 18 18 19 19 21 22 23 24 23 15 7 4 6 4 3 3 3 6 9 8 9 7 8 13 14 17 25 32 38 41 41 42 40 37 36 34 33 30 28 26 23 21 18 17 17 17 18 18 18 17 16 16 15 13 14 14 13 13 12 12 12 13 13 13 13 13 13 13 14 14 14 15 15 15 15 15 15 15 15 15
6 6 7 10 11 14 20 20 20 20 18 16 20 22 23 19 10 5 8 10 9 7 5 9 9 7 8 6 4 8 13 16 19 25 35 40 41 43 42 40 39 37 36 33 30 28 25 23 21 18 18 18 18 19 18 18 17 16 15 14 14 14 14 14 13 13 13 13 14 13 13 13 13 14 14 14 13 13 14 14 14 14 14 14 15 15
7 6 2 6 11 14 16 16 20 23 17 15 23 26 19 15 13 6 5 7 9 5 4 11 10 8 9 9 8 9 12 15 18 23 30 36 41 44 43 42 41 40 38 34 31 29 27 25 23 20 19 19 19 19 19 18 17 16 15 15 15 15 16 16 15 14 14 13 13 13 13 13 13 14 14 14 13 13 14 14 14 14 14 14 14 14
10 8 5 4 10 13 12 14 17 19 17 16 20 25 16 8 10 8 6 4 4 1 3 11 12 10 9 8 9 12 13 15 18 21 25 31 39 45 44 43 43 41 38 35 32 30 29 27 24 21 21 20 19 19 19 18 17 17 16 15 15 15 16 16 16 16 15 14 13 13 14 14 14 14 14 14 14 14 14 14 14 14 14 14 13 13
9 10 7 4 6 10 13 15 17 17 18 16 12 13 10 6 8 9 6 3 3 0 2 6 9 11 13 11 8 11 14 15 17 21 24 28 35 42 45 44 44 43 41 37 34 32 30 28 25 22 21 20 19 19 19 19 19 18 17 17 16 15 15 15 16 16 16 15 14 13 13 14 14 14 14 15 15 15 15 15 14 14 14 14 14 14
9 10 8 3 1 9 14 16 21 22 21 19 14 8 5 5 9 10 6 5 5 2 1 2 4 6 8 8 6 8 11 12 15 21 25 26 30 37 43 45 45 46 44 40 37 34 32 30 27 23 21 20 19 19 21 21 20 20 19 18 17 17 17 17 17 17 16 16 16 15 14 14 14 14 14 15 15 15 15 15 14 14 14 14 14 14
8 10 9 5 2 8 11 11 16 20 22 24 21 15 7 5 9 8 5 5 4 2 2 1 3 5 5 4 4 5 9 11 13 17 21 24 27 33 42 45 46 46 46 43 39 36 34 31 29 25 22 20 18 19 22 23 22 21 21 19 18 18 18 18 18 17 17 17 16 16 16 15 14 14 14 15 15 15 15 15 14 14 14 14 14 14
5 6 6 5 3 4 8 7 9 15 23 24 20 17 12 8 10 8 4 5 4 2 3 3 3 6 6 5 4 5 7 10 11 13 17 20 24 32 41 45 46 47 47 45 41 37 34 32 30 27 26 24 21 20 23 24 23 22 21 20 19 19 19 18 18 17 17 17 17 16 16 16 15 15 15 15 15 14 15 15 14 14 15 15 16 17
7 7 5 4 3 2 4 4 5 10 19 20 15 14 12 10 12 9 5 8 8 5 4 4 2 5 7 5 5 5 8 10 12 14 16 18 22 31 40 45 47 47 48 46 43 39 36 34 31 29 28 26 24 22 22 24 25 24 22 20 19 19 19 18 18 18 18 18 17 17 16 16 16 16 16 16 15 15 15 15 15 16 18 18 18 18
9 8 6 4 2 4 7 6 7 10 15 13 4 6 10 11 12 11 8 8 10 9 7 4 2 5 7 6 5 6 8 11 13 15 16 18 22 29 39 45 47 48 48 47 45 42 38 36 33 31 30 28 27 25 23 23 24 24 23 21 20 19 19 19 19 19 19 19 19 19 18 17 17 17 16 16 16 16 15 15 16 18 18 17 17 17
4 4 4 2 1 4 7 6 6 7 11 9 7 5 6 9 10 11 9 8 10 13 11 6 3 7 6 5 7 7 8 10 13 14 14 16 21 28 36 44 47 48 47 46 46 44 41 37 34 33 32 30 29 27 27 27 25 23 23 22 21 20 20 20 20 20 20 20 21 21 20 19 18 17 16 16 16 16 16 17 18 17 16 16 15 14
3 7 11 8 5 4 3 3 6 5 8 7 5 5 3 6 7 9 8 8 10 14 15 10 7 9 8 6 8 7 7 10 12 12 13 14 19 25 32 40 46 48 48 47 46 44 40 37 35 34 33 31 30 28 27 28 27 25 24 22 21 21 21 21 20 20 21 21 22 22 21 21 20 18 17 17 16 16 16 17 17 15 14 14 13 12
7 11 16 15 13 11 9 8 8 8 9 6 1 2 3 5 6 6 7 9 10 13 17 16 14 13 10 7 7 7 7 9 10 11 12 13 17 22 28 35 41 43 43 43 42 42 40 38 36 34 32 30 30 30 28 28 27 26 27 26 24 23 23 22 21 21 22 22 22 22 21 21 20 20 19 18 17 17 17 17 16 15 14 14 13 12
8 12 14 14 14 15 14 11 8 6 7 7 4 3 3 4 5 7 8 9 9 11 15 17 17 16 11 7 5 5 5 7 8 9 11 13 17 19 23 29 35 38 38 37 37 39 38 36 33 32 30 29 29 29 29 29 28 27 27 29 28 26 24 23 22 22 22 22 22 21 21 21 21 20 20 20 19 19 19 17 16 16 15 15 14 12
9 13 11 8 8 10 9 8 6 5 5 5 5 4 4 4 3 5 7 9 10 11 12 13 14 15 10 5 5 4 6 9 9 9 11 13 16 19 20 23 29 35 38 37 36 36 36 34 33 30 28 26 26 28 30 32 30 26 24 26 28 28 25 22 22 22 22 22 21 21 20 21 21 21 21 21 21 21 20 18 17 17 16 15 15 14
7 11 10 6 7 7 6 6 6 4 3 3 5 6 6 5 3 2 2 7 11 12 12 12 13 13 9 6 7 7 9 11 10 10 11 12 15 18 19 21 24 28 34 37 36 36 35 35 34 31 29 27 27 29 32 33 30 25 23 24 26 27 26 24 22 22 22 22 21 21 21 20 20 21 21 21 21 21 20 18 17 17 16 15 15 14
7 7 7 10 5 6 6 5 5 4 3 3 3 4 5 5 3 2 2 6 10 13 14 13 12 11 11 10 9 10 11 12 11 12 12 13 15 17 18 21 22 25 28 32 35 36 35 35 35 33 31 29 29 29 30 32 32 27 24 23 24 26 26 24 23 24 23 22 22 23 22 21 20 21 21 20 21 21 20 19 18 17 17 16 15 15
6 6 5 13 13 2 4 3 2 3 3 3 4 4 6 8 7 5 2 3 8 12 12 12 11 13 14 13 12 12 12 13 12 12 12 13 15 16 18 20 22 25 27 30 32 34 36 37 37 36 32 28 29 30 28 29 30 27 22 21 23 26 26 24 24 25 23 22 22 22 23 22 21 21 21 21 20 20 20 19 19 19 18 17 16 16
5 6 7 8 14 9 2 0 1 2 3 3 6 8 9 8 7 5 4 2 3 9 10 11 14 16 17 16 15 14 14 14 12 12 12 12 14 15 17 18 20 24 27 30 32 34 36 38 40 39 34 29 29 31 30 28 27 24 22 24 26 27 26 25 25 24 22 20 19 20 22 23 22 21 21 20 20 20 19 19 19 19 19 19 18 17
4 5 6 5 11 12 8 5 2 2 2 1 4 6 7 7 5 2 2 5 4 4 6 9 13 15 15 16 14 13 13 12 12 12 12 12 12 13 14 16 18 21 24 27 29 31 34 37 39 38 35 32 31 32 33 32 28 24 24 26 28 29 28 28 26 24 21 19 19 19 22 23 22 21 21 20 19 20 20 20 20 19 19 19 19 19
2 4 5 5 8 11 10 7 3 3 3 4 3 2 2 4 5 3 3 4 4 6 6 6 8 10 11 11 11 9 7 7 9 10 9 10 11 11 11 12 14 16 20 21 22 25 29 32 34 32 31 33 34 34 35 33 27 23 24 26 28 29 28 29 28 23 18 17 19 20 23 26 26 24 22 19 19 20 21 22 22 21 21 20 21 21
2 2 3 4 5 7 10 9 4 4 7 8 6 5 3 1 1 1 1 2 2 3 4 4 5 8 8 7 6 4 1 3 5 6 6 5 7 8 9 10 12 13 15 15 16 21 24 24 25 26 28 31 33 33 33 30 24 22 24 26 27 28 27 26 28 23 15 13 16 19 23 27 27 24 21 20 20 20 21 22 22 23 23 22 22 22
3 2 3 4 4 6 10 12 9 7 9 10 8 6 4 3 3 3 3 4 4 3 4 3 4 6 6 4 4 3 2 3 5 6 7 7 7 9 10 11 11 10 11 12 14 18 19 18 19 23 26 28 29 29 29 27 23 22 24 26 28 29 27 24 22 17 13 13 16 19 22 24 25 25 25 25 23 21 20 22 23 25 27 25 25 24
4 3 4 4 4 7 11 11 8 5 6 10 11 9 7 6 5 5 6 7 7 7 6 3 1 3 5 6 7 7 6 4 5 7 8 8 8 9 9 9 9 8 9 10 11 13 13 13 17 22 23 23 23 24 25 24 22 23 26 28 28 28 29 26 20 15 15 17 19 21 23 23 24 26 26 24 21 19 21 23 24 26 28 28 27 27
6 4 5 5 6 10 12 10 7 5 7 11 12 10 9 8 8 6 6 8 9 9 7 5 4 6 8 9 10 9 8 7 7 9 10 12 11 9 7 7 7 8 8 8 9 9 8 10 15 18 19 18 17 19 21 22 22 25 29 31 29 27 28 27 23 22 22 22 20 20 21 23 25 26 24 22 21 21 23 25 27 28 29 29 30 29
10 6 6 7 8 10 10 9 8 6 8 12 13 12 11 10 9 6 3 4 7 8 8 8 8 9 9 10 11 10 9 8 7 7 9 10 10 10 9 7 7 7 8 8 7 6 6 9 12 13 13 15 16 17 19 19 21 25 29 30 29 27 26 25 26 27 27 25 22 20 20 21 22 24 23 23 23 24 25 27 28 30 31 32 31 30
11 10 9 8 8 8 8 8 7 5 7 12 13 13 12 11 10 8 5 3 4 6 6 8 9 10 11 12 12 11 10 9 8 8 10 10 9 9 9 7 5 5 6 6 6 5 5 8 10 11 12 13 15 17 18 19 20 22 25 26 25 26 26 26 26 27 29 29 26 23 23 23 23 24 25 25 25 26 27 28 28 30 33 35 34 31
9 10 10 9 8 7 6 5 4 5 7 10 11 11 11 10 10 9 8 5 5 5 5 5 8 11 13 14 15 15 13 11 9 9 10 10 9 7 6 4 3 4 5 5 6 6 6 7 9 10 11 13 15 16 18 19 20 21 22 22 23 25 26 26 26 28 29 29 26 24 25 26 26 26 27 28 27 26 25 25 25 27 31 34 36 34
8 9 10 10 8 6 6 6 4 3 6 8 9 9 9 8 9 8 6 4 3 4 6 7 7 10 13 15 15 15 14 12 10 8 8 8 7 5 4 3 4 5 5 5 4 4 5 6 7 8 10 12 13 15 17 18 18 19 20 20 22 25 25 23 24 27 27 26 26 26 26 26 26 26 28 30 29 28 27 26 25 25 27 31 36 36
7 7 8 10 9 7 7 7 6 6 7 8 8 8 8 7 7 5 3 1 0 2 7 10 10 10 11 12 12 10 10 10 10 8 7 5 4 4 3 3 5 5 5 5 4 4 4 5 5 7 8 10 12 14 16 17 18 18 19 20 21 22 20 17 19 23 24 24 26 27 27 27 26 25 26 28 25 23 25 29 29 29 28 28 29 31
7 7 6 8 10 9 7 7 7 7 8 7 6 6 6 6 5 4 3 3 2 2 6 9 9 8 8 10 10 9 7 8 10 9 7 5 5 5 4 4 5 5 6 6 6 6 6 6 6 6 7 8 10 12 13 15 16 16 18 19 20 21 19 15 15 18 20 21 23 25 25 23 21 20 21 20 17 15 16 19 21 21 21 20 20 22
7 8 7 7 9 9 8 8 7 7 7 6 5 5 5 5 5 5 5 5 4 3 4 7 8 7 5 6 9 10 9 10 10 8 6 5 5 4 4 5 5 6 7 7 7 8 8 8 8 8 7 7 8 9 11 12 12 13 14 15 16 16 13 9 10 13 14 14 15 17 18 18 18 18 16 14 12 11 11 12 13 14 15 15 15 15
7 7 6 7 9 9 9 10 9 8 7 7 6 5 5 3 3 3 3 4 4 4 5 7 9 8 6 6 8 9 10 11 9 7 7 6 4 5 6 6 7 7 8 8 9 10 11 10 9 8 7 7 6 7 8 9 9 9 10 10 11 10 9 8 10 12 13 13 14 16 17 17 17 16 14 12 11 10 9 9 10 10 10 11 10 10
5 5 4 5 8 8 8 9 10 8 8 9 8 7 5 4 3 3 3 5 6 6 8 10 11 11 10 11 11 10 10 12 11 10 11 10 7 7 8 8 8 8 8 9 10 10 11 10 9 7 6 6 5 5 6 7 7 7 7 8 8 8 8 9 10 11 12 13 14 15 15 15 15 14 13 11 9 8 8 9 9 9 9 9 9 9
2 3 3 3 5 5 5 7 8 8 8 8 8 7 5 4 3 3 4 7 9 9 10 11 12 14 14 14 15 14 13 14 13 12 11 10 10 11 10 10 9 8 8 9 8 8 9 9 8 7 7 6 6 6 6 7 7 7 8 8 7 7 7 8 10 11 12 12 14 15 14 13 13 12 11 10 10 10 10 10 10 10 11 10 10 9
2 2 2 1 1 2 2 5 7 6 6 7 7 7 5 4 3 3 5 8 9 9 9 9 10 13 15 15 15 15 13 12 12 12 10 9 10 11 11 10 10 9 9 8 8 8 8 8 8 7 6 6 6 6 7 7 8 8 8 8 8 7 7 7 9 11 11 12 14 15 13 11 11 11 11 11 12 13 13 13 13 14 13 13 12 11
1 2 2 3 3 1 1 4 6 5 4 5 6 5 4 4 4 4 4 6 7 8 8 8 9 11 13 15 16 15 14 13 13 13 11 10 9 9 9 9 9 9 8 7 7 7 7 7 7 7 7 7 7 6 7 7 8 8 8 8 8 8 8 8 8 8 8 8 10 11 9 8 9 10 10 10 10 11 12 14 15 15 16 16 15 15
Wind_Direction
199 203 201 198 196 200 203 205 203 194 206 217 224 225 213 203 199 204 207 203 203 200 195 194 196 192 182 182 184 185 187 188 197 203 191 186 186 188 187 179 180 192 206 207 196 192 174 166 163 157 172 182 170 169 162 153 153 150 146 148 147 144 145 148 152 156 159 160 162 163 163 166 170 171 170 164 158 156 157 161 166 170 166 158 151 145
203 209 208 203 197 200 202 203 204 203 217 232 240 237 224 215 203 202 206 205 205 201 200 199 198 194 186 185 187 187 188 188 195 202 191 188 191 195 198 189 188 200 215 213 205 205 189 172 170 169 179 188 175 175 174 161 164 159 151 152 148 146 147 149 152 155 158 160 163 166 165 164 168 171 171 166 161 159 160 162 168 172 167 158 153 148
207 212 211 206 200 201 202 206 211 215 227 241 247 239 225 214 196 196 203 202 195 196 202 203 198 196 190 188 189 188 190 190 199 205 198 194 196 199 205 199 197 207 219 217 208 208 200 181 178 177 182 198 190 183 185 173 170 166 156 155 150 149 152 153 155 155 157 160 164 167 166 167 170 172 172 166 162 162 163 165 170 173 165 156 156 156
209 213 208 206 206 203 201 206 214 218 229 243 243 228 218 208 193 193 198 198 197 198 204 204 199 200 195 190 189 190 191 192 202 208 205 206 207 208 213 208 205 212 221 218 207 210 209 192 186 184 185 200 200 188 188 183 173 166 160 158 153 153 156 159 160 160 160 161 164 167 168 170 173 175 174 167 164 164 165 165 167 169 160 154 156 159
215 213 203 208 212 206 203 208 214 216 223 238 237 222 216 213 207 204 199 197 200 204 207 202 197 200 199 194 191 192 193 193 200 208 208 210 213 215 216 213 214 219 222 215 205 208 210 196 187 187 190 202 205 192 186 184 176 166 163 161 158 160 160 163 168 168 165 164 164 166 169 172 175 176 175 171 169 167 166 164 163 164 161 156 156 156
221 212 200 208 212 208 208 208 209 211 222 239 240 232 235 238 234 222 203 193 194 203 206 197 195 202 202 200 196 195 197 195 197 205 209 210 212 213 212 209 215 222 222 217 212 211 211 203 195 192 195 200 200 191 185 182 176 168 165 164 164 169 164 164 172 173 171 168 165 163 164 168 173 175 176 174 172 170 170 168 164 165 166 163 157 154
222 212 203 208 207 208 212 208 203 209 227 239 236 232 241 247 245 234 210 193 193 201 203 196 198 203 202 204 200 198 201 199 199 203 207 210 211 213 213 210 214 222 222 219 218 217 218 214 201 189 192 194 190 188 189 182 176 170 166 166 170 174 170 166 169 171 171 168 164 160 159 163 168 174 178 178 176 173 173 174 169 166 167 165 159 158
219 212 209 215 215 211 212 209 204 211 227 232 225 234 249 248 245 238 218 202 200 200 197 198 201 204 206 208 204 201 203 203 203 203 204 209 210 210 213 212 214 221 222 221 220 219 223 219 198 182 186 191 187 189 193 186 180 173 167 169 172 175 176 172 169 169 168 164 161 158 160 165 167 171 177 180 180 176 175 176 172 166 165 164 163 167
217 221 219 222 227 217 209 206 205 212 224 231 236 252 261 250 239 229 212 203 203 201 197 198 200 206 220 213 205 203 205 205 205 204 203 207 208 209 213 212 213 219 223 225 227 227 228 218 191 178 184 193 190 189 191 190 188 181 173 174 175 175 177 176 175 174 169 167 165 162 162 165 168 170 175 179 181 179 177 177 175 172 170 169 170 171
216 226 236 239 241 225 206 203 207 217 229 241 251 255 255 241 226 216 203 197 196 206 217 204 198 199 239 218 204 202 206 206 205 201 202 207 209 210 213 211 210 217 222 226 231 238 240 220 190 179 187 198 197 191 190 193 193 189 182 179 178 178 178 178 181 180 174 173 171 165 161 159 160 162 167 173 176 178 178 177 177 177 175 172 172 170
223 225 242 242 233 219 206 207 213 226 238 245 251 246 231 206 200 201 198 193 190 240 256 217 204 200 247 228 208 207 209 208 204 201 201 207 211 212 214 212 210 216 220 223 227 234 240 227 203 191 193 200 202 195 192 194 195 194 189 183 180 180 180 179 182 183 179 176 174 170 162 155 151 150 153 162 169 173 175 175 177 179 177 174 172 171
246 241 242 233 218 211 217 221 220 228 236 239 244 229 199 165 167 174 189 198 202 251 277 219 209 207 228 238 218 216 217 212 208 206 205 207 210 212 214 212 211 216 220 220 222 227 231 226 212 203 199 202 204 199 196 195 194 195 193 188 184 180 179 179 180 182 184 180 177 173 167 160 154 147 147 153 160 165 169 172 176 178 179 177 176 176
260 254 244 229 221 220 229 228 213 219 232 235 232 206 167 109 113 128 187 222 228 244 252 231 208 212 233 242 234 223 220 217 214 211 209 210 211 212 213 212 211 215 218 218 220 224 227 225 215 206 203 203 203 201 200 199 195 195 196 193 187 180 177 178 177 177 183 185 180 176 173 169 162 155 152 154 158 162 167 171 173 175 178 179 179 181
268 256 245 231 230 223 217 216 204 203 214 221 218 199 168 113 99 160 205 247 258 248 253 236 199 216 243 248 242 226 219 219 218 214 212 213 214 214 213 212 210 214 218 218 220 223 226 226 221 211 206 203 201 201 202 201 198 196 197 195 190 184 178 178 177 174 178 185 183 180 179 176 171 165 163 161 161 164 167 170 171 172 175 179 180 182
273 256 235 226 226 203 195 212 220 204 196 205 213 204 188 174 161 179 199 190 160 183 199 181 184 217 240 237 236 223 210 210 215 215 214 215 216 216 214 211 209 212 217 219 219 222 226 228 226 219 209 202 201 204 203 200 199 198 198 197 194 189 180 177 179 175 176 183 185 185 184 181 179 177 174 172 170 169 170 171 173 173 176 180 182 184
283 274 224 217 217 195 198 218 225 204 184 189 204 202 197 199 197 175 187 184 156 130 147 179 196 231 222 212 232 214 203 200 202 207 212 214 216 216 215 212 209 211 215 217 217 220 225 228 228 224 213 205 203 206 205 200 199 199 198 198 198 194 184 179 180 179 178 182 186 189 189 187 187 186 184 182 179 177 175 176 178 177 179 184 186 186
290 279 234 225 219 208 212 214 205 198 184 179 200 207 208 219 221 183 142 162 153 130 187 203 222 247 234 239 242 216 208 205 201 202 206 210 212 214 215 213 210 211 214 215 216 218 223 226 227 224 216 208 204 206 206 201 200 201 199 199 199 197 191 182 180 182 182 182 185 190 191 193 194 193 193 191 188 187 186 185 185 183 185 188 187 187
284 285 318 283 229 212 205 193 186 195 192 181 199 211 208 213 222 190 119 111 133 84 226 215 231 245 238 245 238 222 217 213 212 209 206 207 208 210 213 212 211 212 213 215 215 217 222 225 226 223 215 209 205 206 207 202 200 200 198 198 198 198 195 188 183 185 186 183 184 188 191 194 197 196 197 198 196 196 195 193 193 191 191 192 191 191
278 296 314 308 239 203 186 185 186 189 194 191 192 199 194 187 193 176 144 144 174 221 242 225 237 245 244 247 243 227 219 216 217 213 210 210 207 207 208 210 211 212 212 213 212 215 220 224 226 220 210 207 205 205 206 205 203 200 196 196 194 193 196 194 190 189 188 186 186 188 189 192 196 197 198 201 201 201 199 198 199 198 198 199 199 198
256 281 296 334 265 192 177 182 189 184 185 199 210 212 212 198 183 182 182 174 168 173 236 250 248 250 247 251 254 228 215 217 217 213 213 214 212 208 205 207 211 212 211 211 210 212 217 222 224 219 211 207 205 203 204 205 205 201 196 194 191 190 194 196 195 192 190 189 188 188 190 191 194 197 199 202 204 204 203 202 202 204 205 206 207 206
242 259 277 311 329 186 178 183 193 186 180 192 211 222 224 203 185 192 204 182 160 163 159 156 260 263 252 254 262 229 213 214 215 214 214 215 215 209 204 205 210 211 211 211 210 210 214 217 218 217 216 215 213 208 204 205 207 203 198 195 192 191 193 195 196 193 190 191 191 190 191 192 194 196 199 202 204 205 206 206 206 207 210 212 214 214
233 260 284 298 332 150 169 195 203 193 186 193 214 226 229 221 195 186 192 196 194 192 177 173 249 268 263 258 256 235 220 212 205 206 209 213 215 209 204 205 208 210 212 213 212 211 213 215 215 215 216 217 218 215 207 204 205 205 201 196 194 194 193 194 196 196 194 192 193 193 193 194 196 198 200 201 201 204 207 209 209 211 213 215 216 216
241 286 310 298 321 102 155 213 201 182 188 198 221 234 232 224 207 199 196 196 192 192 202 201 245 270 258 247 245 236 227 213 199 199 202 206 211 208 205 204 206 209 212 214 215 212 212 215 216 217 217 217 217 215 211 207 204 204 202 198 199 197 194 194 195 197 198 195 193 194 195 197 199 200 201 200 200 202 205 207 211 214 214 215 217 218
239 286 300 280 270 142 140 146 143 160 182 190 223 261 236 225 218 219 216 203 198 200 202 191 243 266 251 241 247 241 229 221 209 203 202 204 207 207 206 205 205 208 211 213 214 213 213 215 216 217 218 218 218 212 208 207 205 205 203 200 202 201 196 195 196 199 201 198 196 195 196 199 201 203 202 201 202 202 203 206 212 218 219 218 220 222
241 329 350 308 271 131 130 122 115 140 164 149 56 17 239 229 226 226 223 214 211 214 213 203 233 263 261 255 258 252 237 227 215 205 203 205 206 206 206 205 206 208 211 212 213 213 215 216 218 219 217 217 219 214 207 203 203 205 207 204 202 203 203 199 197 201 203 202 200 198 197 198 200 204 205 205 207 206 206 210 215 221 224 221 221 224
105 57 52 56 67 74 77 49 27 53 127 133 45 31 193 201 207 217 213 203 214 221 219 218 243 266 273 273 272 269 246 225 210 201 199 200 203 205 206 206 208 209 210 211 212 213 215 217 219 220 219 217 218 219 217 211 203 200 207 211 206 203 206 205 201 202 204 206 206 204 202 200 199 201 203 206 210 211 212 217 220 222 227 227 224 225
118 89 66 63 74 75 75 81 62 66 109 134 49 47 152 182 194 209 204 201 216 223 223 232 253 266 274 285 281 272 248 220 204 198 196 191 194 201 205 207 209 211 211 212 213 214 215 216 218 220 221 220 218 220 224 223 216 205 202 206 208 206 206 206 205 204 205 207 209 209 208 206 204 202 202 203 207 211 215 220 223 223 226 231 230 227
144 114 83 67 77 79 73 76 81 84 106 125 119 91 118 154 179 201 210 214 218 221 229 241 252 257 268 284 274 263 239 212 195 190 192 187 185 191 200 205 207 209 211 213 214 214 214 216 218 220 222 223 223 223 224 226 225 217 209 204 202 204 207 208 207 207 207 208 209 211 211 210 210 208 206 206 206 210 215 218 223 226 227 230 232 231
152 134 108 67 72 89 81 65 65 70 81 104 108 84 75 81 126 180 207 220 216 224 245 254 250 250 257 255 234 218 197 195 188 183 190 189 185 186 192 201 206 209 211 213 213 213 213 215 217 221 224 226 225 223 225 229 228 223 220 217 208 201 201 207 209 208 209 210 209 210 212 212 214 214 213 212 211 215 218 218 222 227 227 230 232 231
126 134 137 117 79 81 85 60 48 49 47 64 80 74 62 54 61 101 191 216 210 217 239 251 252 247 235 214 208 195 184 189 189 187 191 195 195 194 194 197 203 209 212 215 215 214 214 214 217 221 224 226 226 223 223 228 230 222 219 227 226 213 200 199 208 210 209 211 210 210 212 215 217 218 218 218 218 221 223 221 224 228 228 230 232 231
88 104 158 180 158 59 64 68 43 52 72 60 71 86 73 67 74 91 154 201 207 211 222 238 244 226 201 193 195 191 187 187 188 189 192 197 201 205 208 207 207 209 211 214 216 217 217 218 220 223 225 227 228 226 224 225 225 220 216 224 234 228 208 195 201 208 209 210 210 209 210 213 218 220 220 221 222 225 227 225 227 230 231 231 231 231
83 89 144 194 204 240 36 82 65 59 77 54 52 70 64 55 45 32 45 198 215 218 223 232 219 193 185 187 188 188 185 181 184 189 191 196 201 205 212 217 218 218 217 217 219 221 222 224 224 224 225 228 227 222 222 224 221 217 216 220 228 230 218 201 199 206 211 213 215 215 213 211 215 219 219 220 221 225 227 227 228 230 232 233 233 233
81 101 104 170 195 205 253 242 83 358 313 5 50 58 55 51 41 21 18 33 229 226 226 218 198 183 183 185 184 186 182 176 179 185 188 196 204 206 209 213 218 221 223 222 223 225 226 229 231 229 225 225 223 217 217 222 221 217 218 218 223 232 230 216 205 204 209 216 221 226 224 216 215 220 223 223 224 224 226 228 229 231 233 234 236 236
77 99 90 129 173 185 219 251 294 330 292 105 74 59 53 60 72 78 56 60 83 167 189 192 188 183 181 179 180 187 188 179 175 179 188 196 202 207 211 213 216 219 224 225 225 226 228 230 235 237 233 228 223 218 218 219 216 214 216 216 222 234 237 230 218 206 205 217 225 229 230 224 218 219 221 223 228 228 228 228 229 231 234 235 236 236
99 108 100 112 144 166 193 218 267 275 198 162 150 147 93 62 70 71 44 47 92 123 137 164 180 186 186 180 182 194 205 202 184 179 188 199 203 208 212 217 222 222 225 227 226 227 229 229 232 236 237 234 228 224 224 221 212 210 215 217 222 230 233 234 231 217 204 215 225 225 226 226 223 221 219 219 225 231 233 231 229 229 231 234 236 236
232 143 121 131 139 150 166 178 211 219 176 162 165 177 182 186 138 118 38 297 233 148 142 161 183 197 201 193 189 194 261 267 231 207 201 207 216 219 219 223 228 229 229 227 226 229 230 230 232 233 234 235 233 231 228 220 210 211 215 216 219 224 228 233 234 224 206 211 224 223 225 228 228 229 230 229 229 234 239 240 237 235 233 231 232 234
235 206 175 179 182 166 159 165 177 177 165 163 164 169 188 222 236 224 226 249 251 224 208 201 192 209 220 221 227 233 230 251 271 259 233 218 215 219 225 229 229 236 242 237 236 239 236 231 231 233 233 233 235 238 233 222 213 212 213 214 216 220 226 231 232 225 210 212 222 225 228 232 233 233 234 234 232 235 242 246 245 244 246 243 237 233
231 227 208 192 184 175 160 148 147 157 175 177 172 175 203 233 249 247 246 253 251 241 237 225 195 249 259 251 252 252 239 252 318 314 282 271 259 238 236 242 240 245 254 253 255 260 253 235 230 232 233 232 237 244 243 237 230 221 216 220 220 220 225 232 235 235 227 222 225 227 230 234 236 238 241 243 243 242 243 248 250 250 254 257 254 246
233 216 212 203 178 175 171 159 158 180 191 188 188 196 212 229 245 255 267 267 254 247 244 234 237 257 257 252 257 260 257 275 318 324 315 315 307 282 263 258 250 244 243 244 252 263 259 238 230 230 228 225 231 240 242 241 239 228 222 226 227 225 228 231 232 232 231 230 230 231 232 234 237 243 248 251 251 248 245 248 254 255 255 257 258 255
233 214 205 203 189 184 184 175 175 190 193 193 200 210 214 221 234 244 258 269 265 259 245 232 238 249 249 252 258 257 256 264 281 299 307 307 299 287 280 275 261 243 231 225 228 235 235 228 224 220 215 212 217 226 228 228 228 226 224 225 227 228 230 232 233 234 236 236 234 232 233 236 240 244 247 247 248 250 252 254 256 256 254 255 257 258
222 219 215 210 203 201 199 184 179 194 202 200 202 208 213 220 231 235 234 257 290 290 261 240 243 247 246 246 246 246 249 253 260 280 293 291 284 282 282 281 269 235 211 204 202 198 202 210 210 205 202 204 209 216 221 221 222 225 226 225 228 231 232 234 239 242 244 243 238 233 234 240 245 247 247 247 247 249 253 256 257 256 254 254 256 258
194 204 207 207 206 208 207 193 180 188 199 204 207 210 213 219 231 243 252 268 285 284 267 250 248 249 248 241 237 240 245 248 256 271 277 278 278 275 268 260 232 195 178 175 182 184 186 192 196 195 197 203 207 213 222 226 226 230 233 233 234 238 238 239 243 246 247 247 245 243 242 245 250 252 251 250 249 247 248 252 256 258 254 249 248 250
180 189 193 194 196 197 192 185 184 199 203 206 214 218 222 231 243 252 262 277 275 250 235 229 232 243 245 240 237 237 239 244 256 262 259 262 263 252 236 211 177 163 160 166 174 183 194 199 201 202 204 209 214 217 224 228 226 229 235 238 239 240 238 237 241 244 245 246 247 248 246 245 248 251 252 253 251 248 247 246 248 251 249 242 239 241
183 187 189 192 194 192 192 201 217 223 210 207 216 226 235 246 250 248 249 261 103 185 207 214 221 233 238 235 231 226 226 238 242 229 218 220 208 191 187 177 160 148 147 155 156 166 186 194 201 210 213 217 222 224 229 234 234 233 235 238 242 245 243 237 237 242 246 246 247 247 247 248 249 248 250 253 251 244 241 238 237 240 242 240 239 241
197 193 189 194 196 194 201 217 223 215 205 206 221 237 244 247 237 225 225 228 199 156 177 195 209 224 229 225 217 209 210 223 220 207 193 171 161 166 159 146 148 150 150 152 154 159 169 175 184 193 199 205 214 219 224 231 237 238 238 239 243 249 254 249 239 240 244 245 244 243 243 245 243 238 238 242 239 230 230 230 230 235 240 242 244 248
209 199 189 191 194 194 202 212 210 206 206 209 217 227 230 225 213 211 215 214 208 189 170 173 184 193 201 207 205 203 210 216 210 202 197 175 149 146 146 140 143 147 144 144 149 151 152 157 164 170 173 178 189 199 206 213 219 224 227 232 237 242 246 237 216 219 228 229 227 229 230 229 228 225 222 219 215 214 218 221 224 229 234 238 243 249
201 190 183 189 194 196 207 215 213 209 203 196 190 191 192 183 175 185 194 190 181 174 168 161 159 160 159 165 177 192 212 215 200 183 189 185 143 125 140 140 135 136 134 134 136 136 136 139 144 151 157 161 169 183 192 197 201 203 205 210 215 216 212 199 195 204 212 212 209 210 213 213 210 204 197 190 190 197 199 200 206 211 217 226 234 240
191 181 165 177 191 199 212 217 209 196 184 181 181 183 181 174 164 153 148 154 150 141 139 139 139 143 149 154 158 171 194 198 184 172 178 176 156 146 152 145 137 135 129 125 127 127 128 130 133 138 144 147 149 161 170 173 176 182 187 193 196 193 188 187 188 188 191 196 200 200 199 198 194 188 186 189 195 202 203 202 202 203 206 214 221 225
166 173 153 164 196 216 225 211 194 180 178 186 193 197 194 181 171 156 145 152 151 138 130 133 136 140 147 153 156 162 175 185 185 182 181 173 160 156 155 150 146 141 128 120 121 123 123 125 128 133 139 139 137 140 144 148 152 160 171 181 188 192 195 195 193 189 187 191 196 194 192 194 198 202 207 212 216 218 217 216 216 215 213 214 218 223
66 94 95 69 247 252 231 201 184 173 184 201 204 204 204 196 182 169 160 161 157 144 135 140 145 148 151 154 156 157 164 176 181 178 174 168 160 156 156 154 150 141 131 126 126 126 128 129 128 129 132 132 133 136 138 139 142 148 155 161 167 178 185 187 190 196 202 208 211 211 208 208 211 216 221 224 227 226 225 226 227 227 225 227 231 238
97 91 37 1 349 344 229 194 179 162 178 204 198 190 194 192 176 164 165 170 166 155 146 144 150 157 157 153 151 151 153 159 162 160 156 155 158 162 165 163 157 148 143 141 138 137 139 138 138 139 138 136 135 136 136 135 135 136 137 138 144 153 159 159 163 174 188 204 216 221 222 217 212 214 217 220 224 227 228 230 234 235 238 243 248 254
Height
3150 3151 3152 3153 3155 3156 3157 3158 3160 3162 3163 3163 3164 3164 3165 3165 3165 3166 3167 3169 3171 3173 3174 3175 3176 3177 3177 3177 3178 3181 3182 3184 3187 3188 3189 3189 3189 3190 3191 3192 3193 3194 3196 3198 3200 3201 3203 3204 3205 3206 3207 3207 3208 3208 3208 3209 3209 3210 3211 3212 3213 3214 3214 3215 3215 3216 3216 3217 3218 3219 3220 3220 3220 3221 3222 3223 3224 3225 3225 3226 3227 3227 3229 3230 3231 3232
3149 3149 3150 3152 3155 3156 3158 3159 3161 3162 3162 3163 3164 3164 3165 3166 3166 3166 3167 3168 3171 3173 3174 3175 3176 3177 3178 3179 3180 3181 3182 3183 3186 3187 3188 3188 3189 3190 3191 3192 3193 3195 3196 3198 3199 3201 3203 3204 3205 3206 3207 3208 3208 3209 3209 3209 3210 3210 3211 3212 3213 3214 3215 3216 3216 3216 3217 3217 3218 3219 3220 3221 3221 3222 3223 3224 3225 3225 3226 3227 3227 3228 3230 3231 3232 3233
3148 3147 3149 3153 3155 3157 3158 3159 3160 3161 3162 3162 3163 3163 3164 3165 3166 3167 3167 3168 3169 3171 3173 3174 3175 3176 3178 3179 3180 3181 3182 3183 3185 3187 3188 3188 3189 3190 3191 3192 3194 3195 3196 3197 3199 3200 3202 3204 3205 3206 3207 3208 3208 3209 3210 3210 3210 3211 3211 3212 3213 3214 3215 3216 3216 3217 3217 3218 3219 3220 3220 3221 3222 3222 3223 3224 3225 3226 3226 3227 3228 3229 3230 3232 3233 3234
3145 3146 3149 3153 3155 3156 3157 3158 3159 3160 3161 3161 3161 3162 3162 3164 3165 3165 3166 3167 3169 3170 3171 3173 3175 3176 3177 3178 3179 3181 3182 3182 3184 3186 3187 3188 3189 3190 3191 3192 3193 3194 3195 3196 3198 3200 3202 3203 3205 3206 3207 3208 3208 3209 3210 3210 3211 3211 3212 3213 3213 3215 3216 3216 3217 3218 3218 3218 3219 3220 3220 3221 3222 3223 3224 3224 3225 3226 3227 3228 3228 3229 3231 3233 3234 3235
3144 3146 3150 3152 3153 3155 3156 3157 3158 3159 3160 3160 3160 3160 3161 3163 3164 3165 3165 3166 3168 3169 3170 3172 3174 3175 3175 3177 3178 3179 3181 3182 3183 3184 3186 3188 3189 3190 3192 3192 3193 3194 3195 3196 3198 3199 3201 3203 3205 3206 3207 3208 3208 3209 3210 3211 3211 3211 3212 3213 3214 3215 3216 3217 3217 3218 3219 3219 3220 3220 3221 3222 3223 3223 3224 3225 3226 3227 3228 3229 3229 3230 3232 3233 3235 3235
3144 3147 3149 3149 3151 3153 3154 3155 3157 3158 3159 3159 3159 3159 3161 3163 3164 3164 3165 3166 3168 3168 3168 3170 3173 3173 3174 3175 3177 3178 3179 3180 3181 3183 3184 3186 3188 3190 3191 3192 3193 3193 3195 3196 3198 3199 3201 3203 3205 3206 3207 3207 3208 3210 3210 3211 3211 3212 3212 3213 3214 3215 3216 3217 3218 3219 3220 3220 3221 3221 3222 3223 3224 3225 3226 3227 3228 3228 3229 3229 3230 3231 3233 3234 3235 3235
3143 3146 3147 3148 3149 3151 3152 3154 3155 3157 3159 3158 3157 3158 3161 3162 3162 3163 3164 3164 3165 3166 3166 3167 3169 3171 3172 3173 3174 3176 3177 3179 3180 3181 3183 3185 3186 3188 3190 3191 3192 3192 3194 3196 3197 3199 3201 3203 3204 3205 3206 3207 3208 3210 3210 3211 3211 3211 3212 3213 3214 3215 3217 3218 3219 3220 3220 3221 3222 3222 3223 3224 3225 3226 3226 3227 3228 3229 3230 3230 3231 3232 3233 3234 3235 3236
3143 3145 3146 3147 3148 3149 3150 3151 3154 3156 3158 3156 3156 3158 3160 3160 3160 3161 3163 3163 3163 3164 3165 3166 3167 3168 3169 3170 3172 3174 3175 3177 3178 3179 3181 3183 3185 3186 3188 3190 3191 3191 3193 3195 3197 3198 3200 3202 3204 3205 3206 3207 3208 3209 3210 3211 3211 3212 3212 3213 3214 3215 3216 3218 3219 3220 3221 3221 3222 3223 3224 3224 3225 3226 3227 3228 3229 3230 3231 3231 3232 3233 3234 3235 3236 3237
3143 3144 3145 3147 3147 3147 3148 3150 3154 3156 3156 3155 3156 3157 3158 3158 3159 3161 3163 3163 3163 3164 3165 3165 3166 3167 3166 3167 3170 3172 3173 3174 3174 3176 3178 3180 3183 3185 3187 3189 3190 3190 3192 3194 3196 3198 3200 3202 3204 3205 3206 3207 3208 3209 3210 3211 3211 3212 3212 3213 3214 3215 3216 3217 3218 3220 3221 3221 3222 3223 3224 3224 3225 3226 3227 3228 3229 3231 3232 3232 3233 3234 3235 3236 3237 3238
3142 3143 3145 3146 3146 3146 3147 3149 3152 3155 3155 3154 3155 3156 3156 3157 3159 3161 3162 3162 3164 3165 3164 3164 3164 3165 3164 3164 3167 3168 3168 3168 3171 3174 3177 3179 3181 3183 3185 3188 3189 3189 3191 3193 3195 3197 3199 3202 3203 3205 3206 3207 3208 3208 3209 3210 3211 3211 3212 3213 3213 3214 3215 3217 3218 3219 3220 3221 3222 3223 3224 3225 3225 3226 3227 3228 3230 3231 3232 3233 3234 3235 3236 3237 3238 3239
3140 3142 3143 3143 3144 3146 3148 3150 3152 3153 3153 3153 3154 3154 3155 3157 3158 3160 3161 3163 3167 3167 3164 3163 3163 3164 3163 3161 3162 3162 3161 3165 3170 3173 3175 3177 3179 3181 3184 3186 3187 3188 3190 3192 3194 3197 3199 3201 3203 3204 3205 3206 3207 3208 3208 3209 3210 3211 3212 3213 3213 3214 3215 3216 3217 3219 3220 3221 3223 3224 3224 3225 3226 3227 3227 3229 3230 3231 3233 3234 3235 3236 3236 3237 3238 3239
3139 3140 3141 3141 3142 3145 3148 3150 3151 3151 3151 3152 3153 3152 3154 3157 3159 3162 3164 3167 3169 3166 3163 3162 3163 3165 3163 3159 3159 3159 3161 3165 3169 3170 3172 3174 3177 3179 3182 3185 3186 3187 3189 3191 3193 3196 3198 3200 3201 3202 3204 3205 3206 3207 3208 3209 3210 3211 3212 3213 3213 3214 3215 3216 3217 3218 3220 3221 3222 3223 3224 3225 3226 3227 3228 3229 3230 3232 3233 3234 3235 3236 3236 3237 3238 3239
3138 3138 3139 3140 3141 3143 3145 3146 3148 3149 3149 3151 3151 3151 3154 3159 3163 3167 3168 3168 3166 3163 3162 3162 3164 3165 3161 3156 3157 3159 3160 3163 3165 3167 3170 3172 3175 3177 3180 3183 3185 3185 3187 3190 3192 3194 3196 3198 3200 3201 3203 3204 3205 3206 3208 3209 3210 3210 3211 3212 3213 3214 3215 3215 3217 3218 3219 3221 3222 3223 3224 3226 3227 3227 3228 3229 3231 3232 3233 3234 3235 3236 3237 3238 3239 3239
3136 3137 3138 3139 3140 3141 3142 3144 3145 3147 3147 3148 3149 3149 3153 3158 3164 3169 3169 3166 3163 3161 3160 3161 3164 3163 3158 3155 3156 3156 3158 3160 3163 3166 3169 3171 3174 3176 3178 3181 3183 3184 3185 3188 3190 3192 3195 3197 3199 3200 3202 3203 3205 3206 3207 3208 3209 3210 3211 3212 3213 3214 3214 3215 3216 3217 3219 3220 3221 3222 3224 3225 3226 3227 3228 3229 3230 3232 3233 3234 3235 3236 3237 3238 3239 3240
3136 3136 3136 3138 3138 3139 3140 3142 3144 3145 3146 3147 3148 3149 3150 3152 3156 3161 3161 3159 3159 3159 3160 3161 3162 3159 3155 3154 3154 3154 3156 3157 3160 3164 3167 3170 3173 3175 3177 3179 3181 3182 3184 3186 3189 3191 3193 3196 3198 3199 3201 3203 3204 3205 3206 3208 3209 3209 3210 3211 3212 3213 3214 3215 3216 3217 3218 3220 3221 3222 3223 3224 3226 3227 3228 3229 3230 3231 3232 3233 3234 3235 3236 3238 3239 3239
3136 3135 3135 3137 3138 3138 3140 3141 3143 3144 3145 3147 3149 3150 3150 3149 3149 3152 3153 3153 3154 3157 3159 3159 3157 3154 3153 3153 3153 3153 3154 3155 3157 3161 3164 3167 3170 3173 3175 3176 3178 3180 3182 3184 3187 3189 3192 3194 3196 3198 3200 3202 3203 3204 3205 3207 3208 3209 3210 3211 3212 3213 3214 3215 3216 3217 3218 3219 3220 3222 3223 3224 3225 3226 3227 3228 3230 3231 3232 3233 3234 3235 3236 3237 3238 3239
3136 3134 3134 3135 3136 3138 3139 3139 3140 3142 3144 3147 3149 3148 3148 3149 3149 3150 3152 3153 3154 3156 3157 3156 3153 3152 3152 3151 3151 3152 3153 3154 3155 3157 3159 3163 3165 3168 3171 3173 3175 3177 3180 3182 3185 3188 3190 3193 3195 3197 3199 3200 3202 3203 3204 3206 3207 3209 3210 3210 3211 3212 3213 3214 3215 3216 3218 3219 3220 3221 3223 3224 3225 3226 3227 3228 3229 3230 3231 3232 3233 3234 3235 3236 3237 3238
3136 3133 3133 3134 3135 3136 3138 3139 3140 3142 3143 3146 3147 3146 3147 3149 3149 3149 3153 3156 3157 3157 3156 3153 3152 3151 3151 3149 3149 3150 3151 3152 3153 3155 3156 3159 3161 3164 3167 3170 3173 3175 3178 3180 3183 3186 3189 3191 3193 3195 3197 3199 3201 3202 3204 3205 3207 3208 3209 3210 3211 3212 3213 3214 3214 3216 3217 3218 3220 3221 3222 3223 3225 3226 3227 3228 3229 3230 3231 3232 3233 3234 3234 3236 3237 3238
3136 3134 3133 3133 3133 3134 3137 3140 3141 3142 3143 3145 3145 3146 3147 3147 3148 3149 3151 3154 3156 3156 3154 3151 3151 3150 3148 3147 3147 3147 3149 3150 3151 3152 3153 3155 3157 3159 3163 3167 3171 3173 3175 3178 3181 3184 3187 3189 3191 3193 3196 3198 3200 3202 3203 3205 3206 3207 3208 3209 3210 3211 3212 3213 3214 3215 3216 3218 3219 3220 3221 3223 3224 3225 3226 3227 3228 3229 3230 3231 3232 3233 3235 3235 3236 3237
3136 3136 3134 3133 3133 3134 3136 3138 3140 3140 3142 3144 3145 3146 3146 3146 3147 3148 3148 3148 3150 3152 3152 3151 3149 3147 3146 3145 3145 3146 3147 3148 3149 3149 3150 3152 3154 3156 3160 3164 3167 3170 3172 3175 3178 3181 3185 3187 3190 3192 3195 3197 3199 3201 3202 3203 3205 3206 3207 3208 3209 3210 3211 3212 3213 3214 3216 3217 3218 3219 3220 3221 3223 3224 3225 3226 3227 3229 3230 3231 3232 3233 3234 3235 3236 3237
3135 3136 3134 3133 3133 3134 3135 3136 3138 3139 3139 3141 3144 3144 3145 3145 3145 3146 3146 3146 3146 3148 3150 3150 3148 3145 3144 3144 3144 3144 3145 3146 3147 3148 3149 3151 3152 3155 3158 3161 3164 3167 3170 3173 3176 3179 3183 3185 3188 3190 3193 3196 3198 3200 3201 3202 3204 3205 3206 3207 3208 3209 3209 3211 3212 3214 3215 3216 3217 3218 3219 3220 3221 3223 3224 3225 3226 3228 3229 3230 3231 3233 3234 3236 3237 3238
3134 3134 3134 3134 3134 3133 3134 3135 3137 3138 3138 3140 3143 3143 3144 3144 3144 3144 3145 3145 3146 3146 3147 3148 3147 3143 3143 3144 3143 3143 3144 3145 3146 3147 3148 3150 3151 3153 3156 3158 3162 3165 3168 3171 3174 3178 3181 3183 3186 3189 3191 3193 3196 3198 3200 3201 3202 3204 3205 3206 3207 3208 3209 3210 3211 3213 3214 3215 3216 3217 3218 3219 3220 3222 3223 3224 3225 3227 3228 3229 3231 3232 3234 3235 3235 3236
3134 3134 3134 3134 3134 3134 3134 3135 3136 3136 3137 3140 3142 3142 3142 3143 3142 3143 3143 3144 3145 3145 3145 3146 3145 3142 3142 3143 3142 3142 3143 3143 3145 3146 3147 3149 3150 3151 3153 3156 3160 3163 3166 3169 3173 3177 3179 3182 3185 3187 3189 3192 3194 3196 3198 3200 3201 3202 3204 3205 3206 3207 3208 3209 3210 3212 3213 3214 3215 3217 3217 3218 3219 3221 3222 3223 3224 3226 3227 3229 3230 3231 3232 3233 3234 3236
3134 3134 3134 3134 3134 3134 3134 3134 3134 3135 3137 3139 3141 3140 3140 3141 3141 3142 3143 3143 3144 3144 3144 3145 3145 3142 3141 3142 3142 3142 3142 3142 3143 3144 3146 3147 3148 3149 3150 3153 3157 3160 3163 3167 3171 3175 3177 3180 3183 3186 3188 3190 3192 3193 3196 3198 3200 3201 3202 3203 3205 3206 3207 3208 3209 3210 3211 3213 3214 3215 3216 3218 3219 3220 3221 3222 3223 3225 3226 3228 3228 3229 3231 3234 3235 3237
3135 3135 3135 3134 3134 3134 3134 3134 3134 3134 3136 3137 3139 3139 3139 3139 3140 3141 3142 3143 3143 3143 3143 3145 3144 3141 3140 3141 3141 3141 3141 3141 3142 3143 3144 3145 3146 3146 3148 3151 3154 3158 3162 3165 3169 3172 3175 3178 3181 3184 3185 3187 3190 3191 3193 3195 3197 3199 3201 3202 3203 3205 3206 3207 3208 3209 3210 3211 3212 3213 3215 3216 3218 3219 3221 3222 3223 3224 3225 3226 3227 3228 3231 3233 3234 3235
3136 3137 3136 3136 3136 3138 3138 3137 3137 3136 3135 3136 3138 3138 3137 3138 3139 3140 3141 3142 3142 3142 3143 3143 3141 3140 3140 3141 3140 3141 3141 3141 3141 3142 3143 3144 3144 3145 3147 3149 3152 3155 3159 3163 3167 3171 3174 3177 3180 3182 3183 3185 3188 3190 3193 3194 3195 3196 3198 3201 3202 3203 3205 3206 3207 3208 3209 3210 3211 3212 3214 3215 3216 3218 3220 3221 3223 3224 3224 3225 3227 3228 3230 3231 3232 3233
3138 3137 3137 3138 3139 3140 3139 3138 3138 3137 3137 3137 3138 3138 3137 3137 3138 3139 3140 3141 3141 3142 3142 3141 3140 3140 3140 3141 3140 3140 3140 3141 3141 3142 3143 3143 3143 3144 3146 3148 3151 3155 3158 3163 3167 3170 3172 3175 3178 3180 3182 3184 3186 3189 3192 3194 3195 3194 3194 3197 3200 3202 3203 3204 3205 3207 3208 3209 3210 3211 3213 3214 3216 3217 3218 3220 3221 3222 3223 3224 3226 3228 3229 3230 3231 3232
3137 3137 3138 3140 3141 3141 3139 3139 3138 3138 3137 3137 3138 3137 3136 3136 3137 3138 3138 3139 3140 3141 3140 3140 3140 3140 3141 3141 3141 3140 3141 3141 3141 3142 3143 3144 3144 3144 3146 3148 3151 3154 3158 3162 3165 3168 3170 3173 3176 3178 3180 3183 3185 3187 3189 3191 3194 3195 3193 3193 3195 3198 3201 3203 3204 3205 3207 3208 3209 3211 3212 3214 3215 3216 3217 3218 3219 3220 3221 3223 3225 3226 3227 3228 3229 3230
3137 3137 3138 3141 3142 3141 3139 3139 3138 3138 3137 3137 3136 3136 3135 3135 3136 3136 3137 3137 3139 3140 3139 3139 3139 3140 3141 3141 3140 3140 3141 3141 3142 3142 3143 3144 3145 3146 3147 3148 3151 3153 3157 3160 3163 3166 3169 3171 3173 3176 3179 3182 3183 3185 3187 3189 3192 3194 3195 3194 3193 3194 3197 3201 3202 3204 3205 3207 3209 3210 3212 3213 3214 3215 3216 3217 3218 3218 3220 3222 3223 3224 3225 3227 3228 3228
3136 3137 3139 3140 3141 3140 3139 3139 3138 3138 3138 3137 3136 3135 3135 3135 3135 3135 3135 3136 3137 3138 3138 3139 3139 3140 3141 3141 3140 3141 3141 3141 3142 3143 3143 3145 3146 3147 3148 3149 3151 3153 3156 3159 3161 3164 3167 3169 3171 3174 3176 3179 3181 3183 3186 3188 3191 3192 3193 3195 3195 3194 3194 3196 3200 3202 3203 3205 3207 3209 3210 3212 3213 3214 3215 3216 3216 3217 3218 3220 3221 3222 3224 3225 3226 3227
3136 3137 3138 3139 3140 3141 3140 3139 3139 3138 3138 3138 3136 3135 3135 3134 3134 3133 3134 3135 3136 3136 3137 3138 3139 3139 3140 3140 3141 3141 3141 3142 3142 3143 3144 3145 3146 3148 3149 3151 3152 3153 3155 3158 3160 3162 3165 3167 3169 3171 3173 3176 3178 3181 3184 3186 3189 3190 3191 3192 3195 3195 3191 3191 3195 3199 3200 3202 3205 3206 3207 3209 3211 3212 3214 3215 3215 3216 3217 3219 3220 3220 3222 3223 3224 3225
3136 3136 3136 3137 3139 3140 3140 3139 3139 3139 3139 3138 3137 3136 3135 3134 3134 3133 3133 3134 3135 3136 3136 3137 3138 3139 3139 3140 3140 3141 3142 3142 3143 3144 3145 3146 3147 3148 3150 3151 3153 3154 3155 3157 3158 3160 3162 3164 3165 3167 3170 3173 3175 3178 3181 3184 3186 3188 3189 3190 3191 3192 3190 3188 3191 3195 3198 3200 3203 3204 3205 3207 3208 3210 3211 3212 3213 3214 3215 3217 3218 3219 3220 3221 3222 3223
3136 3136 3136 3136 3137 3138 3140 3140 3139 3139 3140 3140 3139 3137 3136 3136 3136 3135 3135 3134 3135 3136 3136 3137 3138 3139 3139 3140 3140 3141 3142 3142 3143 3144 3145 3147 3148 3149 3150 3151 3152 3153 3154 3155 3157 3159 3161 3162 3162 3164 3167 3170 3173 3175 3178 3181 3183 3185 3186 3187 3189 3190 3191 3191 3190 3192 3196 3199 3201 3203 3204 3205 3206 3208 3209 3210 3212 3212 3213 3214 3216 3217 3218 3219 3220 3221
3136 3136 3136 3135 3135 3136 3139 3140 3140 3139 3140 3141 3140 3139 3138 3137 3137 3137 3136 3135 3136 3137 3137 3138 3138 3139 3139 3140 3141 3142 3142 3142 3143 3145 3146 3147 3148 3149 3150 3151 3152 3152 3153 3154 3156 3158 3160 3160 3160 3162 3165 3168 3170 3172 3175 3177 3179 3181 3182 3184 3186 3189 3191 3193 3192 3190 3192 3196 3199 3200 3202 3203 3203 3204 3206 3208 3210 3211 3212 3212 3213 3215 3217 3218 3218 3219
3136 3136 3136 3136 3135 3136 3138 3140 3141 3140 3139 3140 3140 3139 3139 3138 3138 3137 3137 3137 3138 3139 3139 3139 3139 3140 3141 3142 3142 3143 3144 3144 3145 3146 3147 3148 3148 3149 3150 3151 3151 3152 3152 3153 3156 3157 3158 3158 3159 3161 3164 3166 3168 3170 3172 3174 3176 3177 3179 3181 3184 3187 3190 3192 3192 3190 3188 3192 3196 3197 3199 3200 3200 3200 3202 3204 3206 3208 3209 3210 3211 3213 3214 3215 3216 3217
3136 3136 3136 3136 3136 3136 3137 3139 3140 3139 3138 3139 3140 3140 3140 3139 3139 3138 3138 3139 3140 3140 3140 3139 3139 3140 3141 3142 3143 3144 3145 3146 3146 3147 3148 3149 3149 3149 3150 3150 3150 3151 3151 3153 3154 3154 3155 3157 3159 3160 3162 3163 3165 3167 3169 3172 3174 3176 3177 3179 3182 3185 3188 3189 3191 3188 3186 3188 3193 3194 3195 3197 3198 3199 3201 3201 3202 3204 3206 3208 3209 3210 3211 3213 3214 3215
3135 3136 3136 3136 3136 3136 3136 3138 3139 3138 3138 3139 3139 3140 3141 3141 3140 3140 3139 3140 3140 3140 3140 3140 3140 3141 3142 3143 3144 3145 3145 3145 3146 3147 3147 3148 3148 3149 3149 3149 3149 3150 3151 3152 3153 3152 3154 3157 3158 3158 3159 3160 3162 3163 3165 3169 3172 3174 3176 3178 3181 3183 3185 3187 3188 3185 3183 3187 3191 3192 3193 3195 3195 3195 3195 3195 3197 3199 3202 3205 3207 3208 3210 3211 3212 3212
3135 3135 3136 3136 3135 3135 3136 3137 3138 3139 3139 3138 3139 3140 3141 3141 3141 3140 3140 3140 3140 3140 3140 3141 3141 3142 3143 3144 3146 3147 3146 3146 3147 3148 3148 3148 3148 3148 3148 3148 3149 3150 3151 3152 3152 3152 3154 3156 3155 3155 3157 3160 3162 3163 3164 3166 3169 3171 3174 3176 3178 3180 3182 3184 3184 3182 3182 3186 3190 3191 3192 3193 3192 3191 3192 3194 3196 3197 3199 3202 3204 3206 3208 3209 3210 3210
3134 3135 3135 3135 3135 3135 3135 3136 3137 3138 3138 3138 3139 3139 3140 3141 3141 3141 3141 3140 3140 3141 3141 3142 3143 3143 3144 3144 3145 3146 3147 3147 3148 3149 3149 3149 3148 3148 3147 3147 3148 3149 3149 3151 3152 3152 3153 3154 3154 3154 3157 3161 3163 3162 3162 3164 3167 3169 3171 3173 3175 3178 3179 3180 3181 3181 3183 3186 3188 3189 3190 3190 3189 3189 3192 3195 3195 3195 3197 3199 3201 3202 3204 3206 3207 3207
3134 3134 3134 3134 3134 3134 3135 3135 3136 3137 3137 3138 3139 3139 3139 3140 3140 3141 3141 3140 3140 3141 3141 3142 3143 3143 3144 3144 3144 3145 3147 3148 3148 3148 3148 3147 3147 3147 3147 3146 3146 3147 3148 3149 3150 3152 3153 3153 3154 3154 3157 3159 3160 3160 3161 3163 3165 3166 3168 3170 3173 3176 3176 3175 3176 3179 3182 3184 3185 3186 3186 3187 3188 3189 3190 3191 3192 3193 3194 3195 3197 3198 3200 3201 3203 3203
3132 3133 3133 3133 3133 3134 3134 3135 3136 3136 3137 3137 3138 3138 3139 3139 3140 3140 3140 3140 3140 3140 3140 3141 3142 3143 3143 3143 3143 3144 3146 3147 3147 3147 3147 3146 3146 3146 3146 3146 3146 3146 3147 3148 3149 3151 3152 3153 3154 3155 3156 3158 3159 3159 3160 3161 3162 3163 3165 3168 3172 3172 3171 3172 3175 3179 3181 3181 3181 3181 3183 3185 3187 3187 3188 3188 3188 3189 3190 3191 3193 3194 3195 3197 3198 3199
3131 3132 3132 3132 3132 3133 3134 3135 3135 3136 3136 3137 3137 3138 3138 3138 3138 3138 3138 3139 3139 3139 3139 3140 3141 3141 3141 3142 3142 3143 3145 3145 3146 3147 3147 3147 3146 3146 3146 3145 3145 3146 3146 3148 3149 3151 3152 3153 3154 3155 3156 3157 3158 3159 3159 3160 3162 3163 3164 3167 3169 3168 3168 3172 3175 3177 3178 3179 3179 3180 3182 3184 3186 3186 3186 3185 3184 3185 3186 3188 3189 3190 3190 3192 3194 3195
3130 3131 3131 3131 3132 3132 3133 3134 3135 3135 3135 3136 3136 3137 3137 3137 3137 3137 3137 3138 3139 3139 3139 3139 3140 3140 3140 3140 3141 3143 3144 3145 3146 3146 3147 3147 3146 3146 3145 3145 3145 3146 3146 3148 3149 3150 3152 3153 3153 3154 3156 3157 3157 3158 3159 3159 3161 3162 3162 3164 3166 3165 3167 3171 3174 3173 3174 3176 3177 3178 3180 3183 3184 3184 3183 3181 3180 3182 3184 3186 3187 3187 3186 3188 3190 3191
3130 3130 3131 3131 3131 3132 3132 3133 3133 3134 3134 3135 3135 3136 3136 3136 3136 3137 3137 3138 3138 3138 3138 3138 3138 3139 3139 3140 3140 3142 3143 3144 3145 3145 3145 3146 3146 3145 3145 3145 3145 3145 3146 3148 3149 3150 3151 3152 3153 3154 3155 3156 3157 3157 3158 3158 3159 3160 3161 3162 3163 3164 3165 3169 3170 3170 3171 3173 3174 3175 3177 3179 3181 3181 3180 3178 3178 3180 3181 3182 3183 3183 3183 3184 3186 3188
3130 3130 3130 3131 3131 3131 3132 3132 3133 3133 3133 3134 3134 3135 3135 3135 3136 3136 3137 3137 3138 3138 3138 3137 3137 3138 3138 3139 3140 3141 3143 3144 3144 3144 3145 3145 3145 3145 3145 3145 3145 3145 3146 3147 3149 3150 3151 3152 3153 3153 3154 3155 3156 3156 3157 3158 3158 3159 3160 3161 3162 3162 3164 3166 3167 3168 3169 3170 3171 3172 3174 3175 3176 3177 3178 3177 3177 3178 3179 3179 3180 3181 3181 3183 3185 3186
3130 3130 3130 3130 3131 3131 3131 3132 3132 3132 3133 3133 3133 3134 3134 3135 3135 3136 3136 3137 3137 3137 3137 3137 3137 3137 3138 3139 3140 3141 3143 3143 3144 3146 3146 3146 3145 3145 3146 3146 3146 3146 3147 3147 3149 3150 3151 3151 3152 3153 3153 3154 3155 3155 3156 3157 3157 3158 3159 3160 3161 3162 3163 3164 3165 3166 3167 3168 3169 3170 3172 3173 3174 3175 3176 3176 3176 3177 3177 3178 3179 3180 3180 3182 3183 3184
3130 3130 3130 3130 3130 3130 3130 3131 3132 3132 3132 3132 3133 3133 3134 3134 3135 3135 3136 3136 3136 3136 3136 3136 3136 3136 3137 3139 3140 3141 3142 3144 3145 3146 3147 3146 3146 3146 3147 3147 3147 3147 3147 3148 3149 3150 3150 3151 3152 3153 3153 3154 3154 3155 3155 3156 3157 3158 3159 3159 3160 3161 3162 3164 3165 3166 3167 3168 3169 3169 3170 3172 3172 3173 3174 3174 3175 3176 3176 3177 3178 3179 3180 3181 3182 3183
3130 3130 3130 3130 3130 3129 3129 3130 3131 3132 3132 3132 3132 3133 3133 3134 3135 3135 3135 3136 3136 3136 3136 3136 3136 3137 3137 3138 3140 3141 3142 3143 3145 3145 3145 3145 3146 3146 3147 3148 3148 3148 3148 3149 3149 3150 3150 3151 3152 3153 3153 3154 3154 3155 3155 3156 3156 3157 3158 3159 3160 3161 3162 3164 3165 3166 3167 3168 3169 3170 3170 3171 3172 3172 3173 3173 3174 3175 3176 3177 3178 3178 3179 3180 3181 3182
3130 3130 3130 3130 3130 3129 3129 3130 3131 3131 3132 3132 3133 3133 3133 3134 3135 3135 3135 3136 3136 3136 3137 3137 3136 3137 3138 3138 3139 3140 3142 3143 3144 3144 3144 3145 3145 3146 3147 3148 3148 3149 3149 3150 3151 3151 3151 3152 3153 3153 3153 3154 3154 3155 3155 3156 3157 3158 3158 3159 3160 3161 3162 3163 3164 3165 3167 3167 3168 3169 3169 3170 3171 3171 3172 3172 3173 3174 3175 3176 3177 3178 3179 3179 3180 3180
3130 3130 3130 3130 3130 3130 3130 3130 3131 3132 3132 3132 3133 3133 3134 3134 3135 3135 3136 3136 3137 3137 3137 3138 3137 3137 3138 3138 3139 3140 3142 3143 3143 3144 3145 3145 3146 3146 3147 3148 3148 3149 3150 3151 3152 3153 3153 3153 3154 3154 3154 3154 3155 3155 3156 3157 3157 3158 3159 3160 3160 3161 3162 3162 3163 3164 3165 3166 3167 3168 3168 3168 3169 3170 3171 3171 3172 3173 3174 3175 3176 3177 3177 3178 3178 3179
3130 3130 3130 3130 3130 3130 3130 3130 3131 3132 3132 3133 3133 3133 3134 3134 3135 3135 3136 3137 3137 3137 3138 3138 3139 3139 3139 3139 3140 3140 3142 3143 3144 3144 3145 3145 3146 3146 3147 3147 3148 3149 3150 3151 3152 3153 3154 3154 3155 3155 3155 3155 3155 3156 3157 3157 3158 3158 3159 3160 3160 3161 3162 3162 3163 3163 3164 3165 3165 3166 3167 3167 3168 3169 3169 3170 3171 3172 3172 3173 3174 3175 3176 3176 3177 3177